Yaogan 39 01 zu 01 xing

operational
NORAD ID: 57727 Int'l Des: 2023-130 Owner: ZZB Country: CN Constellation: yaogan
LEOCIRCULAR

About Yaogan 39 01 zu 01 xing

Description loading...

Live Position

Loading 3D Globe...

Upcoming Passes

Altitude History

Altitude vs Time

uPlot chart will show altitude changes over time

Two-Line Element Set

1 57727U 23130A 26061.22478811 .00014056 00000-0 58160-3 0 9994
2 57727 35.0025 81.3956 0004249 256.0034 104.0208 15.23126350139394
Epoch: Mar 2, 2026 • Age: 29 hours

Current Status

Altitude 497.3 km
Velocity 7.62 km/s
Sub-Earth Point 23.19°N, 126.05°W
Launch Date Aug 31, 2023
Age 2.5 years
Type military

Technical Details

Classification Payload
Mass 300.00 kg
Dry Mass 300.00 kg
Total Mass 300.00 kg
Length 2.50 m
Diameter 2.50 m
Span 5.00 m
Shape Box + 2 Pan
Manufacturer DFHZ
Phase Status In Orbit
Owner/State ZZB/CN

Large Constellations

Loading constellations...